Location: Conway
(28.5028°N, 81.3306°W)
Time: 04:59:15
(UTC+00:00)

Daily predictions for brighter satellites

Satellite Brightness Start Highest point End
(mag) Time Altitude Azimuth Time Altitude Azimuth Time Altitude Azimuth
Cosmos 2278 4.3 00:00:04 10° SSE 00:05:09 34° ESE 00:06:19 31° ENE
OAO 2 Rocket 3.7 00:00:49 10° W 00:05:40 52° NNW 00:07:50 30° NE
IUS-26 SRM-1 2.5 00:00:58 10° W 00:05:41 53° S 00:06:04 46° SSE
YAOGAN 1 2.4 00:07:55 10° SSE 00:12:11 66° ENE 00:16:28 10° N
Cosmos 2315 Rocket 4.4 00:07:48 10° SSE 00:13:21 35° E 00:14:09 34° ENE
Cosmos 2219 3.3 00:10:17 10° N 00:15:52 50° ENE 00:17:55 35° ESE
S3M 3.9 00:11:30 10° S 00:17:36 88° E 00:23:45 10° N
Cosmos 1812 Rocket 3.5 00:15:10 10° S 00:19:31 62° E 00:20:08 55° NE
CZ-2C R/B 3.2 00:15:37 10° SSE 00:21:25 80° ENE 00:27:12 10° N
Cosmos 1315 Rocket 2.7 00:18:54 10° S 00:22:48 83° W 00:24:27 34° N
Cosmos 1892 3.2 00:23:16 10° N 00:26:14 51° N 00:26:14 51° N
Cosmos 2369 3.7 00:22:12 10° SSW 00:27:55 84° WNW 00:32:24 17° NNE
Cosmos 968 Rocket 4.2 00:24:49 10° N 00:28:17 36° NNE 00:28:17 36° NNE
Hubble Space Telescope 2.9 00:27:17 10° WSW 00:30:15 19° SSW 00:31:27 17° S
Delta 2 Rocket 4.2 00:25:34 10° WNW 00:30:55 54° NNE 00:31:32 51° NE
Meteor 2-10 Rocket 4.1 00:25:35 10° SSW 00:30:58 59° W 00:36:09 10° N
Atlas Centaur 2 3.0 00:23:42 10° W 00:32:17 88° N 00:35:21 45° ENE
Timation 2 Rocket 4.3 00:26:30 10° NNW 00:33:12 76° WSW 00:40:03 10° SSE
Okean-O 3.5 00:29:07 10° S 00:33:23 49° W 00:37:41 10° NNW
ARGOS 4.2 00:36:35 31° NNE 00:36:35 31° NNE 00:39:35 10° N
CRYOSAT 2 4.5 00:31:11 10° N 00:36:01 72° W 00:40:50 10° SSW
Cosmos 1486 Rocket 4.3 00:36:54 10° N 00:41:02 52° NNE 00:41:02 52° NNE
Delta 142 4.1 00:39:11 10° W 00:44:18 81° S 00:44:45 75° SE
CSL-04 Rocket 3.7 00:46:03 25° S 00:49:21 82° WSW 00:54:55 10° NNW
CZ-2C R/B 4.2 00:53:05 22° S 00:53:05 22° S 00:54:56 10° S
Cosmos 2227 Rocket 2.4 00:46:34 10° NNW 00:51:13 61° N 00:51:13 61° N
Cosmos 1697 Rocket 4.2 00:56:17 10° SW 01:01:17 33° WNW 01:05:59 11° N
OAO 3 Rocket 4.4 00:58:10 10° WNW 01:01:04 37° WNW 01:01:04 37° WNW
H-2A R/B 2.7 01:03:05 35° SSW 01:05:04 54° W 01:10:23 10° NNW
Cosmos 1980 Rocket 3.3 01:17:42 10° SW 01:22:19 41° W 01:22:19 41° W
Centaur AC-72 4.2 00:38:20 10° W 01:27:31 57° SSW 01:29:34 51° SSE
Cosmos 2297 Rocket 3.7 01:27:14 10° NW 01:32:04 32° W 01:32:04 32° W
Milstar 3 3.3 01:29:46 10° W 01:34:44 56° W 01:34:44 56° W
Atlas Centaur 2 4.5 02:13:58 10° W 02:17:57 31° W 02:17:57 31° W
CENTAUR R/B 4.3 08:57:17 21° NNE 08:57:17 21° NNE 08:59:24 10° NNE
Cosmos 1833 Rocket 3.2 09:08:56 56° E 09:08:56 56° E 09:14:14 10° NNE
Cosmos 1110 Rocket 4.4 09:17:53 58° E 09:17:53 58° E 09:22:38 10° SSE
H-2A R/B 3.1 09:17:11 10° SSE 09:20:50 45° ESE 09:20:50 45° ESE
Cosmos 2082 Rocket 3.3 09:22:32 10° S 09:27:47 42° ESE 09:33:03 10° NE
Cosmos 2142 Rocket 4.4 09:22:50 10° N 09:29:07 87° W 09:35:28 10° S
CZ-4B R/B 4.4 09:33:57 10° ESE 09:36:14 17° ENE 09:38:30 10° NNE
Meteor 1-16 Rocket 4.3 09:31:07 10° N 09:36:24 67° E 09:41:42 10° SSE
ATLAS 3B R/B 2.5 09:36:11 34° SSW 09:39:19 90° SSE 09:45:56 10° NNE
Meteor 2-5 Rocket 4.5 09:34:53 10° SSE 09:40:18 52° E 09:45:51 10° NNE
Mugunghwa Rocket 4.3 09:39:47 48° WSW 09:42:11 77° S 09:49:23 10° E
EPKM 3.8 09:43:42 47° WSW 09:45:35 74° S 10:08:46 10° E
COSMOS 2406 3.7 09:48:10 39° NNW 09:48:10 39° NNW 09:52:21 10° N
GPS 2-17 Rocket1 4.5 09:48:22 26° S 09:48:24 26° S 09:52:14 10° SE
deb Chang Zheng 4 4.2 09:44:15 10° NNE 09:48:25 55° E 09:52:35 10° S
Cosmos 2084 4.3 09:48:54 19° S 09:51:44 50° ESE 09:55:56 10° NE
Cosmos 2279 Rocket 3.9 09:48:03 10° NNW 09:54:08 61° W 10:00:12 10° S
ADEOS Rocket 2.6 09:50:37 10° S 09:56:11 72° WSW 10:01:39 10° NNW
Cosmos 1356 Rocket 4.4 09:59:14 32° SSW 09:59:14 32° SSW 10:01:36 10° S
Cosmos 292 Rocket 3.6 09:57:37 29° NNW 10:00:06 74° WSW 10:04:55 10° S
ERS-2 2.7 09:57:35 10° SSE 10:01:09 57° ENE 10:04:43 10° N
Cosmos 1697 Rocket 4.3 09:56:25 10° N 10:01:34 35° ENE 10:06:40 10° SE
BREEZE-M DEB (TANK) 4.1 10:04:39 13° N 10:05:03 13° NNE 10:06:18 10° NE
Cosmos 44 Rocket 4.1 10:04:57 10° NNW 10:10:02 56° ENE 10:15:06 10° SE
Cosmos 1461 3.5 10:10:10 38° WNW 10:10:10 38° WNW 10:14:23 10° N
Cosmos 1908 3.1 10:08:36 20° NNW 10:11:12 64° W 10:15:03 10° S
SL-19 R/B 3.5 10:09:28 10° NNE 10:12:18 82° ESE 10:15:18 10° SSW
Cosmos 2251 Rocket 3.4 10:08:24 10° SSW 10:13:46 81° WNW 10:19:08 10° NNE
SL-14 R/B 3.1 10:10:06 10° S 10:14:00 73° W 10:17:59 10° N
FENGYUN 3A 3.6 10:10:21 10° N 10:15:43 63° WNW 10:21:04 10° SSW
USA 290 2.1 10:18:28 41° SW 10:19:15 56° WNW 10:22:25 10° N
Cosmos 1980 Rocket 4.2 10:18:45 10° N 10:23:25 27° ENE 10:28:05 10° ESE
DELTA 2 R/B (1) 3.9 10:24:51 19° NW 10:28:54 61° NNE 10:34:26 10° ESE
Cosmos 1300 3.3 10:27:17 10° N 10:31:03 57° E 10:34:48 10° SSE
CZ-2C R/B 1.5 10:30:29 27° WSW 10:31:29 35° SSW 10:34:31 10° SE
USA 142 4.3 10:26:48 13° WSW 10:33:23 63° SSE 10:36:46 10° E
ALOS 2.9 10:32:21 10° N 10:36:31 33° WNW 10:40:41 10° SW
Cosmos 1626 3.2 10:35:26 10° SW 10:38:25 23° W 10:41:25 10° NNW
Cosmos 1726 Rocket 3.7 10:35:57 10° N 10:40:25 78° E 10:44:52 10° S
Palapa 6 Rocket 4.4 10:38:45 10° SW 10:42:16 29° SSE 10:46:16 10° ESE
Cosmos 1484 Rocket 3.9 10:39:34 10° NNW 10:42:31 22° WNW 10:45:26 10° WSW
GOES 2 Rocket 4.1 10:41:08 15° W 10:46:11 86° S 10:54:08 10° E
Cosmos 1092 Rocket 4.2 10:44:16 10° SSW 10:50:06 46° W 10:56:01 10° N
Aureole 3 4.4 10:46:23 10° N 10:50:57 69° E 10:56:47 10° SSE
H-2A R/B 3.5 10:48:00 10° NNE 10:51:47 58° E 10:55:34 10° S
Cosmos 2228 3.2 10:48:08 10° NNW 10:52:21 49° W 10:56:35 10° SSW
CZ-4B R/B 3.2 10:48:40 10° N 10:52:39 49° WNW 10:56:48 10° SSW
Cosmos 1833 Rocket 4.2 10:50:45 12° W 10:52:57 15° WNW 10:56:08 10° NNW
COSMO-SKYMED 1 2.6 10:48:55 10° SSE 10:53:14 88° ENE 10:57:35 10° NNW
Cosmos 1606 Rocket 3.8 10:51:11 10° NNW 10:55:30 49° W 10:59:48 10° SSW
Geosat 4.4 10:52:33 10° S 10:57:18 44° WSW 11:02:04 10° NW
H-2A R/B 4.1 10:57:04 10° WSW 10:57:35 10° W 10:57:55 10° W
Meteor 1-24 Rocket 4.3 10:54:13 10° SW 10:59:08 33° WNW 11:04:15 10° NNW
ATLAS CENTAUR R/B 2.0 10:57:16 10° SSW 11:01:18 58° ESE 11:05:07 10° NE
Cosmos 407 Rocket 3.5 10:57:57 10° SSW 11:03:03 89° WNW 11:08:12 10° NNE
CZ-3 R/B 2.7 10:42:23 11° W 11:04:02 90° SSW 11:09:53 10° E
Meteor 1-31 Rocket 4.4 11:04:10 10° NNW 11:06:35 16° WNW 11:08:58 10° WSW
CZ-4B R/B 3.0 11:05:56 10° SW 11:08:17 17° W 11:10:38 10° NW
Envisat 3.7 11:03:34 10° NNE 11:08:35 60° E 11:13:34 10° S
Meteor PRIRODA 4.4 11:06:09 10° NNW 11:09:22 30° WNW 11:12:36 10° SW
Meteor 2-19 Rocket 4.5 11:04:21 10° S 11:10:28 84° W 11:16:35 10° N
Cosmos 1140 Rocket 3.6 11:05:34 10° SSW 11:10:41 84° ESE 11:15:50 10° NNE
Meteor 2-10 Rocket 4.4 11:06:20 10° N 11:11:15 54° E 11:16:16 10° SSE
Cosmos 2082 Rocket 3.5 11:08:03 10° WSW 11:11:58 19° WNW 11:15:54 10° NNW
